This demonstration page uses our WeatherBlox Daily Observations layout. Learn more.

Left ArrowRight Arrow

39.92423, -83.80882

Hourly Observations for March 12, 2020

Temp ( °F °C ) Dew Point ( °F °C ) Humidity (%) Winds ( mph kmh ) Pressure ( in mb ) Visibility ( mi km ) Precip ( " mm )
12:56 am 00:56 Cloudy 45 7.2 42 5.6 90 90 Calm 30.02 1017 10 16.0934 0 0
1:56 am 01:56 Cloudy 45 7.2 44 6.7 97 97 Calm 30.02 1017 10 16.0934 0 0
2:56 am 02:56 Cloudy 45 7.2 44 6.7 97 97 Calm 30.01 1016 10 16.0934 0 0
3:56 am 03:56 Cloudy 45 7.2 44 6.7 97 97 Calm 30.01 1016 10 16.0934 0 0
4:56 am 04:56 Cloudy 44 6.7 44 6.7 100 100 ENE 5 7 30 1016 10 16.0934 0 0
5:56 am 05:56 Cloudy 44 6.7 44 6.7 100 100 ESE 6 9 29.99 1016 10 16.0934 0 0
6:56 am 06:56 Cloudy 44 6.7 43 6.1 96 96 E 6 9 29.98 1015 10 16.0934 0 0
7:54 am 07:54 Partly Cloudy 43 6 41 5 93 93 SE 6 9 30 1016 10 16.0934 0 0
7:56 am 07:56 Mostly Sunny 42 5.6 41 5 96 96 SE 7 11 29.99 1016 10 16.0934 0 0
8:18 am 08:18 Mostly Cloudy 41 5 41 5 100 100 E 3 6 30 1016 9 14.48406 0 0
8:56 am 08:56 Cloudy 44 6.7 43 6.1 96 96 E 5 7 30 1016 9 14.48406 0 0
9:56 am 09:56 Cloudy 46 7.8 43 6.1 89 89 ESE 9 15 29.98 1015 8 12.87472 0 0
10:56 am 10:56 Cloudy 48 8.9 45 7.2 89 89 SE 9 15 29.95 1014 9 14.48406 0 0
11:56 am 11:56 Cloudy 54 12.2 48 8.9 80 80 SE 9 15 29.94 1014 10 16.0934 0 0
12:33 pm 12:33 Mostly Cloudy 55 13 50 10 82 82 SE 14 22 29.9 1013 10 16.0934 0 0
12:56 pm 12:56 Partly Cloudy 56 13.3 50 10 81 81 SSE 14 22 29.9 1013 10 16.0934 0 0
1:56 pm 13:56 Mostly Cloudy 59 15 50 10 72 72 SSE 13 20 29.86 1011 10 16.0934 0 0
2:56 pm 14:56 Mostly Cloudy 60 15.6 51 10.6 72 72 S 9 15 29.83 1010 10 16.0934 0 0
3:56 pm 15:56 Mostly Cloudy 62 16.7 51 10.6 67 67 S 8 13 29.8 1009 10 16.0934 0 0
4:56 pm 16:56 Cloudy 61 16.1 51 10.6 70 70 S 10 17 29.78 1009 10 16.0934 0 0
5:56 pm 17:56 Cloudy with Light Rain 59 15 53 11.7 81 81 S 5 7 29.78 1008 10 16.0934 0.001 0.001
6:56 pm 18:56 Cloudy with Light Rain 57 13.9 55 12.8 93 93 SE 12 19 29.72 1006 10 16.0934 0.02 0.508
7:56 pm 19:56 Partly Cloudy 58 14.4 54 12.2 87 87 SSE 14 22 29.68 1005 10 16.0934 0.001 0.001
8:56 pm 20:56 Clear 57 13.9 55 12.8 93 93 S 10 17 29.67 1005 10 16.0934 0 0
9:56 pm 21:56 Mostly Clear 56 13.3 55 12.8 97 97 S 10 17 29.67 1005 10 16.0934 0 0
10:14 pm 22:14 Mostly Cloudy 55 13 54 12 94 94 S 8 13 29.67 1005 10 16.0934 0 0
10:56 pm 22:56 Cloudy with Light Rain 56 13.3 55 12.8 97 97 S 9 15 29.66 1004 10 16.0934 0.001 0.001
11:26 pm 23:26 Cloudy with Heavy Rain 55 13 55 13 100 100 S 9 15 29.65 1004 9 14.48406 0.02 0.508
11:56 pm 23:56 Cloudy with Light Rain 57 13.9 57 13.9 100 100 SSW 13 20 29.65 1004 10 16.0934 0.03 0.762

Powered by AerisWeather